| time (UTC) | temp F | wind direction | speed knots | gust knots | rain 1hr in | rain 24hr in | rain mn in | humidity % | barometer mb |
| 20260504193355 | 73 | 0 | 1.7 | 0.0 | 0.00 | 0.00 | 0.00 | 83 | 1010.0 |
| 20260504190354 | 72 | 0 | 4.3 | 0.0 | 0.00 | 0.00 | 0.00 | 84 | 1011.0 |
| 20260504183353 | 73 | 0 | 4.3 | 0.0 | 0.00 | 0.00 | 0.00 | 85 | 1011.0 |
| 20260504180352 | 74 | 0 | 4.3 | 0.0 | 0.00 | 0.00 | 0.00 | 84 | 1012.0 |
| 20260504173351 | 71 | 0 | 4.3 | 0.0 | 0.00 | 0.00 | 0.00 | 87 | 1012.0 |
| 20260504170350 | 71 | 200 | 3.5 | 0.0 | 0.00 | 0.00 | 0.00 | 88 | 1014.0 |
| 20260504160347 | 69 | 230 | 2.6 | 0.0 | 0.00 | 0.00 | 0.00 | 92 | 1015.0 |
| 20260504150345 | 63 | 300 | 2.6 | 0.0 | 0.00 | 0.00 | 0.00 | 94 | 1016.0 |
| 20260504140343 | 63 | 10 | 2.6 | 0.0 | 0.00 | 0.00 | 0.00 | 94 | 1016.0 |
| 20260504130341 | 64 | 10 | 2.6 | 0.0 | 0.00 | 0.00 | 0.00 | 94 | 1016.0 |
| 20260504110337 | 57 | 200 | 2.6 | 0.0 | 0.00 | 0.00 | 0.00 | 91 | 1015.0 |
| 20260504100335 | 58 | 200 | 2.6 | 0.0 | 0.00 | 0.00 | 0.00 | 91 | 1015.0 |
| 20260504080331 | 59 | 200 | 2.6 | 0.0 | 0.00 | 0.00 | 0.00 | 91 | 1015.0 |
| 20260504070329 | 60 | 200 | 2.6 | 0.0 | 0.00 | 0.00 | 0.00 | 91 | 1016.0 |
| 20260504050325 | 62 | 200 | 2.6 | 0.0 | 0.00 | 0.00 | 0.00 | 91 | 1017.0 |
| 20260504043324 | 63 | 200 | 2.6 | 0.0 | 0.00 | 0.00 | 0.00 | 91 | 1016.0 |
| 20260504040323 | 63 | 200 | 2.6 | 0.0 | 0.00 | 0.00 | 0.00 | 91 | 1017.0 |
| 20260504033322 | 64 | 200 | 2.6 | 0.0 | 0.00 | 0.00 | 0.00 | 91 | 1016.0 |
| 20260504030321 | 64 | 200 | 2.6 | 0.0 | 0.00 | 0.00 | 0.00 | 91 | 1016.0 |
| 20260504023320 | 65 | 200 | 2.6 | 0.0 | 0.00 | 0.00 | 0.00 | 91 | 1016.0 |
| 20260504020319 | 65 | 200 | 2.6 | 0.0 | 0.00 | 0.00 | 0.00 | 91 | 1016.0 |
| 20260504013318 | 66 | 200 | 2.6 | 0.0 | 0.00 | 0.00 | 0.00 | 90 | 1015.0 |
| 20260504010317 | 66 | 200 | 2.6 | 0.0 | 0.00 | 0.00 | 0.00 | 91 | 1014.0 |
| 20260504003316 | 67 | 200 | 2.6 | 0.0 | 0.00 | 0.00 | 0.00 | 91 | 1014.0 |
| 20260504000314 | 67 | 300 | 2.6 | 0.0 | 0.00 | 0.00 | 0.00 | 91 | 1013.0 |
| 20260503233313 | 68 | 300 | 2.6 | 0.0 | 0.00 | 0.00 | 0.00 | 91 | 1012.0 |
| 20260503230312 | 68 | 300 | 2.6 | 0.0 | 0.00 | 0.00 | 0.00 | 91 | 1011.0 |
| 20260503223311 | 69 | 300 | 2.6 | 0.0 | 0.00 | 0.00 | 0.00 | 91 | 1011.0 |
| 20260503220310 | 69 | 300 | 2.6 | 0.0 | 0.00 | 0.00 | 0.00 | 91 | 1010.0 |
| 20260503213309 | 70 | 300 | 2.6 | 0.0 | 0.00 | 0.00 | 0.00 | 91 | 1010.0 |
| 20260503210308 | 70 | 300 | 2.6 | 0.0 | 0.00 | 0.00 | 0.00 | 91 | 1010.0 |
| 20260503203307 | 71 | 300 | 2.6 | 0.0 | 0.00 | 0.00 | 0.00 | 91 | 1010.0 |
| 20260503200306 | 71 | 300 | 2.6 | 0.0 | 0.00 | 0.00 | 0.00 | 91 | 1011.0 |